Jackson, TN

1:05 PM CDT on July 27, 2017 (GMT -0500)
McKellar-Sipes Regional

Weather History for KMKL - November, 2012

Change the Weather History Date:

Sunday, November 11, 2012

  Actual Average Record
Temperature  
Mean Temperature 65 °F 52 °F  
Max Temperature 73 °F 63 °F 80 °F (1978)
Min Temperature 57 °F 40 °F 21 °F (1950)
Degree Days  
Heating Degree Days 0 13  
Month to date heating degree days 140 128  
Since 1 July heating degree days 414 342  
Cooling Degree Days 0 0  
Month to date cooling degree days 0 2  
Year to date cooling degree days 1931 1693  
Growing Degree Days 15 (Base 50)    
Moisture  
Dew Point 52 °F    
Average Humidity 72    
Maximum Humidity 97    
Minimum Humidity 46    
Precipitation  
Precipitation 0.55 in 0.14 in 0.77 in (1962)
Month to date precipitation 1.07 1.55  
Year to date precipitation 36.54 44.57  
Snow  
Snow 0.00 in 0.00 in 0.30 in (1968)
Month to date snowfall 0.0 0.0  
Since 1 July snowfall 0.0 0.0  
Since 1 September snowfall 0.0 0.0  
Snow Depth 0.00 in    
Sea Level Pressure  
Sea Level Pressure 30.08 in    
Wind  
Wind Speed 13 mph (South)    
Max Wind Speed 25 mph    
Max Gust Speed 36 mph    
Visibility 9 miles    
Events Rain , Thunderstorm    
T = Trace of Precipitation, MM = Missing Value Source: NWS Daily Summary

Daily Weather History Graph

Daily Weather History Graph

Search for Another Location

Airport or City:

Trip Planner

Search our weather history database for the weather conditions in past years. The results will help you decide how hot, cold, wet, or windy it might be!

Date:

Astronomy

Nov. 11, 2012 Rise Set
Actual Time 6:27 AM CST 4:51 PM CST
Civil Twilight 6:00 AM CST 5:18 PM CST
Nautical Twilight 5:30 AM CST 5:48 PM CST
Astronomical Twilight 5:00 AM CST 6:18 PM CST
Moon 3:45 AM CST (11/11) 3:11 PM CST (11/11)
Length of Visible Light 11h 17m
Length of Day
10h 23m
Waning Crescent, 7% of the Moon is Illuminated
Nov 11
Waning Crescent
Nov 13
New
Nov 20
First Quarter
Nov 28
Full
Dec 6
Last Quarter

Hourly Weather History & Observations

Time (CST) Temp. Dew Point Humidity Pressure Visibility Wind Dir Wind Speed Gust Speed Precip Events Conditions
12:53 AM 59.0 °F 44.1 °F 58% 30.13 in 10.0 mi South 6.9 mph - N/A   Clear
1:53 AM 59.0 °F 45.0 °F 60% 30.14 in 10.0 mi South 10.4 mph 16.1 mph N/A   Clear
2:53 AM 57.9 °F 46.0 °F 65% 30.14 in 10.0 mi South 12.7 mph 18.4 mph N/A   Clear
3:53 AM 57.9 °F 46.9 °F 67% 30.14 in 10.0 mi South 9.2 mph - N/A   Overcast
4:53 AM 57.9 °F 48.0 °F 70% 30.15 in 10.0 mi South 10.4 mph 16.1 mph N/A   Overcast
5:53 AM 57.9 °F 48.9 °F 72% 30.15 in 10.0 mi South 12.7 mph 19.6 mph N/A   Overcast
6:53 AM 57.9 °F 48.0 °F 70% 30.16 in 10.0 mi South 11.5 mph 17.3 mph N/A   Overcast
7:53 AM 57.9 °F 48.0 °F 70% 30.16 in 10.0 mi South 11.5 mph 21.9 mph N/A   Mostly Cloudy
8:53 AM 62.1 °F 48.9 °F 62% 30.17 in 10.0 mi SSE 12.7 mph 18.4 mph N/A   Partly Cloudy
9:53 AM 66.0 °F 51.1 °F 59% 30.17 in 10.0 mi South 15.0 mph 20.7 mph N/A   Clear
10:53 AM 66.9 °F 51.1 °F 57% 30.14 in 10.0 mi South 11.5 mph 29.9 mph N/A   Scattered Clouds
11:53 AM 69.1 °F 52.0 °F 54% 30.11 in 10.0 mi South 15.0 mph 24.2 mph N/A   Overcast
12:53 PM 71.1 °F 52.0 °F 51% 30.08 in 10.0 mi South 18.4 mph 29.9 mph N/A   Mostly Cloudy
1:53 PM 71.1 °F 52.0 °F 51% 30.03 in 10.0 mi South 13.8 mph 27.6 mph N/A   Clear
2:53 PM 73.0 °F 51.1 °F 46% 30.00 in 10.0 mi SSE 19.6 mph 34.5 mph N/A   Clear
3:53 PM 72.0 °F 52.0 °F 49% 30.01 in 10.0 mi South 19.6 mph 29.9 mph N/A   Clear
4:53 PM 70.0 °F 52.0 °F 53% 30.01 in 10.0 mi South 13.8 mph 25.3 mph N/A   Partly Cloudy
5:53 PM 70.0 °F 53.1 °F 55% 30.01 in 10.0 mi SSE 9.2 mph 21.9 mph N/A   Overcast
6:34 PM 69.8 °F 53.6 °F 56% 30.03 in 10.0 mi South 13.8 mph 27.6 mph N/A Thunderstorm Overcast
6:47 PM 69.8 °F 53.6 °F 56% 30.05 in 10.0 mi South 17.3 mph 28.8 mph N/A Thunderstorm Overcast
6:53 PM 66.9 °F 55.0 °F 66% 30.04 in 9.0 mi South 12.7 mph 28.8 mph 0.01 in Rain , Thunderstorm Rain
7:13 PM 66.2 °F 53.6 °F 64% 30.03 in 10.0 mi SSE 15.0 mph 20.7 mph 0.00 in   Overcast
7:53 PM 66.9 °F 54.0 °F 63% 30.02 in 10.0 mi South 15.0 mph 26.5 mph 0.00 in Rain Light Rain
8:53 PM 63.0 °F 57.0 °F 81% 30.05 in 4.0 mi South 11.5 mph 21.9 mph 0.05 in Rain Rain
9:03 PM 62.6 °F 57.2 °F 82% 30.05 in 3.0 mi South 10.4 mph - 0.03 in Rain , Thunderstorm Rain
9:18 PM 60.8 °F 57.2 °F 88% 30.07 in 4.0 mi South 10.4 mph 19.6 mph 0.08 in Rain Rain
9:53 PM 61.0 °F 57.9 °F 90% 30.06 in 7.0 mi SSE 8.1 mph - 0.15 in Rain Rain
10:53 PM 61.0 °F 59.0 °F 93% 30.04 in 10.0 mi SSE 11.5 mph 19.6 mph 0.06 in Rain Light Rain
11:36 PM 62.6 °F 59.0 °F 88% 30.03 in 9.0 mi SSE 11.5 mph 23.0 mph 0.02 in Rain Light Rain
11:53 PM 62.1 °F 57.9 °F 86% 30.01 in 10.0 mi SSE 13.8 mph 24.2 mph 0.03 in Rain Light Rain